QPF
0.00 0.01 0.06 0.10 0.24 0.04 0.00 0.00 0.00 0.00 0.00 0.00 0.00 0.02 0.01 0.00 0.02 0.13 0.00 0.00 0.00 0.00 0.00 0.00 0.00 0.00 0.00 0.00 0.00 0.00 0.00 0.00 0.00 0.01 0.00 0.00 0.00 0.02 0.02 0.01 0.01 0.03 0.01 0.00 0.01 0.02 0.02 0.01 0.00
0.00 0.02 0.03 0.10 0.05 0.00 0.00 0.00 0.00 0.00 0.00 0.00 0.00 0.01 0.01 0.00 0.00 0.00 0.00 0.00 0.00 0.00 0.00 0.00 0.00 0.00 0.02 0.00 0.00 0.00 0.00 0.00 0.00 0.00 0.00 0.01 0.02 0.03 0.03 0.01 0.02 0.01 0.00 0.00 0.00 0.00 0.01 0.00 0.00
0.00 0.01 0.08 0.07 0.00 0.00 0.00 0.00 0.00 0.00 0.00 0.00 0.00 0.01 0.01 0.00 0.00 0.00 0.00 0.00 0.00 0.00 0.00 0.00 0.00 0.00 0.00 0.00 0.00 0.00 0.00 0.00 0.00 0.00 0.00 0.04 0.02 0.03 0.01 0.02 0.02 0.00 0.00 0.00 0.00 0.00 0.00 0.00 0.00
0.00 0.01 0.05 0.06 0.01 0.00 0.00 0.00 0.00 0.00 0.00 0.00 0.00 0.00 0.00 0.00 0.00 0.00 0.00 0.00 0.00 0.00 0.00 0.00 0.00 0.00 0.00 0.00 0.00 0.00 0.00 0.00 0.00 0.00 0.01 0.03 0.01 0.02 0.00 0.00 0.00 0.01 0.00 0.00 0.00 0.00 0.00 0.00 0.00
0.00 0.00 0.06 0.00 0.00 0.00 0.00 0.00 0.00 0.00 0.00 0.00 0.00 0.00 0.00 0.00 0.00 0.00 0.00 0.00 0.00 0.00 0.00 0.00 0.00 0.00 0.00 0.00 0.00 0.00 0.00 0.00 0.00 0.00 0.00 0.00 0.01 0.00 0.01 0.01 0.00 0.00 0.00 0.00 0.00 0.00 0.00 0.01 0.02
0.02 0.02 0.01 0.00 0.00 0.00 0.00 0.00 0.00 0.00 0.00 0.00 0.00 0.00 0.00 0.00 0.00 0.00 0.00 0.00 0.00 0.00 0.00 0.00 0.00 0.00 0.00 0.00 0.00 0.00 0.00 0.00 0.00 0.00 0.01 0.00 0.00 0.00 0.00 0.00 0.00 0.00 0.00 0.00 0.00 0.00 0.00 0.00 0.00
0.05 0.02 0.01 0.00 0.00 0.00 0.00 0.00 0.00 0.00 0.00 0.00 0.00 0.00 0.00 0.00 0.00 0.00 0.00 0.00 0.00 0.00 0.00 0.00 0.00 0.00 0.00 0.00 0.00 0.00 0.00 0.00 0.00 0.00 0.00 0.00 0.02 0.01 0.00 0.00 0.00 0.00 0.00 0.00 0.00 0.00 0.00 0.00 0.00
0.03 0.08 0.00 0.00 0.01 0.00 0.00 0.00 0.00 0.00 0.00 0.00 0.00 0.01 0.00 0.00 0.00 0.00 0.00 0.00 0.00 0.00 0.00 0.00 0.00 0.00 0.00 0.00 0.00 0.00 0.00 0.00 0.00 0.00 0.00 0.00 0.00 0.00 0.00 0.00 0.00 0.00 0.00 0.00 0.00 0.00 0.00 0.00 0.00
0.01 0.04 0.00 0.00 0.01 0.00 0.00 0.00 0.00 0.00 0.00 0.00 0.00 0.00 0.00 0.00 0.00 0.00 0.00 0.00 0.00 0.00 0.00 0.00 0.00 0.00 0.00 0.00 0.00 0.00 0.00 0.00 0.00 0.00 0.00 0.00 0.00 0.00 0.00 0.00 0.00 0.00 0.00 0.00 0.00 0.00 0.00 0.00 0.03
0.02 0.02 0.00 0.00 0.01 0.00 0.00 0.00 0.00 0.00 0.00 0.00 0.00 0.00 0.00 0.00 0.00 0.00 0.00 0.00 0.00 0.00 0.00 0.00 0.00 0.00 0.00 0.00 0.00 0.00 0.00 0.00 0.00 0.00 0.00 0.00 0.00 0.00 0.00 0.00 0.00 0.00 0.00 0.00 0.00 0.00 0.00 0.00 0.02
0.02 0.00 0.00 0.00 0.00 0.00 0.00 0.00 0.00 0.00 0.01 0.00 0.00 0.00 0.00 0.00 0.00 0.00 0.00 0.00 0.00 0.00 0.00 0.00 0.00 0.00 0.00 0.00 0.00 0.00 0.00 0.00 0.00 0.00 0.00 0.00 0.00 0.00 0.00 0.00 0.00 0.00 0.00 0.00 0.00 0.00 0.00 0.00 0.12
0.00 0.00 0.00 0.00 0.00 0.00 0.00 0.00 0.00 0.00 0.00 0.00 0.00 0.00 0.00 0.00 0.00 0.00 0.00 0.00 0.00 0.00 0.00 0.00 0.00 0.00 0.00 0.00 0.00 0.00 0.00 0.00 0.00 0.00 0.00 0.00 0.00 0.00 0.00 0.00 0.00 0.00 0.00 0.00 0.00 0.00 0.00 0.00 0.09
0.00 0.00 0.00 0.00 0.00 0.00 0.00 0.00 0.00 0.00 0.00 0.00 0.00 0.00 0.00 0.00 0.00 0.00 0.00 0.00 0.00 0.00 0.00 0.00 0.00 0.00 0.00 0.00 0.00 0.00 0.00 0.00 0.00 0.00 0.00 0.00 0.00 0.00 0.00 0.00 0.00 0.00 0.00 0.00 0.00 0.00 0.00 0.00 0.03
0.00 0.00 0.00 0.00 0.00 0.00 0.00 0.00 0.00 0.00 0.00 0.00 0.00 0.00 0.00 0.00 0.00 0.00 0.00 0.00 0.00 0.00 0.00 0.00 0.00 0.00 0.00 0.00 0.00 0.00 0.00 0.00 0.00 0.00 0.00 0.00 0.00 0.00 0.00 0.00 0.00 0.00 0.00 0.00 0.00 0.00 0.00 0.00 0.01
0.00 0.00 0.00 0.00 0.00 0.00 0.00 0.00 0.01 0.01 0.00 0.00 0.00 0.00 0.00 0.00 0.00 0.00 0.00 0.00 0.00 0.00 0.00 0.00 0.00 0.00 0.00 0.00 0.00 0.00 0.00 0.00 0.00 0.00 0.00 0.00 0.00 0.00 0.00 0.00 0.00 0.00 0.00 0.00 0.00 0.00 0.00 0.00 0.01
0.02 0.02 0.01 0.00 0.00 0.01 0.00 0.00 0.02 0.03 0.00 0.00 0.00 0.00 0.00 0.00 0.00 0.00 0.00 0.00 0.00 0.00 0.00 0.00 0.00 0.00 0.00 0.00 0.00 0.00 0.00 0.00 0.00 0.00 0.00 0.00 0.00 0.00 0.00 0.00 0.00 0.00 0.00 0.00 0.00 0.00 0.00 0.01 0.00
0.03 0.03 0.01 0.01 0.00 0.01 0.00 0.00 0.01 0.03 0.01 0.00 0.00 0.00 0.00 0.00 0.00 0.00 0.00 0.00 0.00 0.00 0.00 0.00 0.00 0.00 0.00 0.00 0.00 0.00 0.00 0.00 0.00 0.00 0.00 0.00 0.00 0.00 0.00 0.00 0.00 0.00 0.00 0.00 0.00 0.01 0.00 0.00 0.00
0.00 0.00 0.00 0.01 0.01 0.00 0.00 0.01 0.01 0.03 0.02 0.00 0.00 0.00 0.00 0.00 0.00 0.00 0.00 0.00 0.00 0.00 0.00 0.00 0.00 0.00 0.00 0.00 0.00 0.00 0.00 0.00 0.00 0.00 0.00 0.00 0.00 0.00 0.00 0.00 0.00 0.00 0.00 0.01 0.05 0.01 0.00 0.00 0.00
0.01 0.01 0.01 0.00 0.00 0.00 0.00 0.00 0.00 0.00 0.01 0.01 0.00 0.00 0.00 0.00 0.00 0.00 0.00 0.00 0.00 0.00 0.00 0.00 0.00 0.00 0.00 0.00 0.00 0.00 0.00 0.00 0.00 0.00 0.00 0.00 0.00 0.00 0.00 0.00 0.00 0.02 0.07 0.13 0.09 0.01 0.00 0.00 0.00
0.01 0.01 0.01 0.00 0.00 0.00 0.00 0.01 0.00 0.00 0.00 0.00 0.00 0.00 0.00 0.00 0.00 0.00 0.00 0.00 0.00 0.00 0.00 0.00 0.00 0.00 0.00 0.00 0.00 0.00 0.00 0.00 0.00 0.00 0.00 0.00 0.00 0.00 0.00 0.00 0.00 0.18 0.21 0.13 0.08 0.00 0.00 0.00 0.00
0.00 0.00 0.00 0.00 0.00 0.00 0.00 0.01 0.01 0.01 0.00 0.00 0.00 0.00 0.00 0.00 0.00 0.00 0.00 0.00 0.00 0.00 0.00 0.00 0.00 0.00 0.00 0.00 0.00 0.00 0.00 0.00 0.00 0.00 0.00 0.00 0.00 0.00 0.00 0.04 0.14 0.18 0.10 0.08 0.02 0.00 0.00 0.00 0.00
0.00 0.00 0.00 0.00 0.00 0.01 0.00 0.01 0.00 0.00 0.00 0.00 0.00 0.00 0.00 0.00 0.00 0.00 0.00 0.00 0.00 0.00 0.00 0.00 0.00 0.00 0.00 0.00 0.00 0.00 0.00 0.00 0.00 0.00 0.00 0.03 0.06 0.03 0.02 0.01 0.02 0.08 0.04 0.01 0.00 0.00 0.00 0.00 0.00
0.00 0.00 0.00 0.00 0.00 0.00 0.00 0.00 0.00 0.00 0.00 0.00 0.00 0.00 0.00 0.00 0.00 0.02 0.03 0.00 0.01 0.01 0.00 0.00 0.00 0.00 0.00 0.00 0.00 0.00 0.00 0.00 0.00 0.02 0.02 0.00 0.00 0.01 0.02 0.00 0.00 0.01 0.01 0.00 0.00 0.00 0.00 0.00 0.00
0.00 0.00 0.00 0.00 0.00 0.00 0.00 0.00 0.00 0.00 0.00 0.00 0.00 0.00 0.00 0.00 0.00 0.00 0.04 0.01 0.00 0.00 0.00 0.00 0.00 0.00 0.00 0.01 0.00 0.01 0.00 0.00 0.02 0.05 0.07 0.07 0.02 0.00 0.00 0.00 0.02 0.03 0.02 0.00 0.00 0.00 0.00 0.00 0.00
0.00 0.00 0.00 0.00 0.00 0.00 0.00 0.00 0.00 0.00 0.00 0.00 0.00 0.00 0.00 0.00 0.00 0.00 0.00 0.04 0.02 0.01 0.00 0.00 0.00 0.00 0.01 0.10 0.13 0.09 0.11 0.06 0.09 0.11 0.13 0.17 0.12 0.07 0.03 0.01 0.01 0.02 0.02 0.01 0.00 0.00 0.00 0.00 0.00
0.00 0.00 0.00 0.00 0.00 0.00 0.00 0.00 0.00 0.00 0.00 0.00 0.00 0.00 0.00 0.00 0.00 0.00 0.00 0.00 0.01 0.01 0.00 0.01 0.00 0.01 0.05 0.12 0.17 0.17 0.13 0.14 0.14 0.22 0.27 0.25 0.19 0.16 0.09 0.05 0.01 0.01 0.00 0.00 0.00 0.00 0.00 0.00 0.00
0.00 0.00 0.00 0.00 0.00 0.00 0.00 0.00 0.00 0.00 0.00 0.00 0.00 0.00 0.00 0.00 0.00 0.00 0.00 0.00 0.05 0.06 0.02 0.00 0.01 0.00 0.00 0.01 0.02 0.06 0.06 0.07 0.12 0.16 0.14 0.08 0.02 0.01 0.01 0.01 0.00 0.00 0.00 0.00 0.00 0.00 0.00 0.00 0.00
0.00 0.00 0.00 0.00 0.00 0.00 0.00 0.00 0.00 0.00 0.00 0.00 0.00 0.00 0.00 0.00 0.00 0.00 0.00 0.00 0.00 0.01 0.02 0.00 0.00 0.00 0.00 0.00 0.01 0.01 0.01 0.05 0.04 0.02 0.01 0.00 0.00 0.00 0.00 0.00 0.00 0.00 0.00 0.00 0.00 0.01 0.00 0.01 0.00
0.00 0.00 0.00 0.00 0.00 0.00 0.00 0.00 0.00 0.00 0.00 0.00 0.00 0.00 0.00 0.00 0.00 0.00 0.00 0.00 0.00 0.00 0.00 0.00 0.01 0.00 0.02 0.02 0.01 0.00 0.00 0.03 0.01 0.00 0.00 0.00 0.00 0.00 0.00 0.00 0.00 0.00 0.00 0.00 0.00 0.00 0.00 0.00 0.00
0.00 0.00 0.00 0.00 0.00 0.00 0.00 0.00 0.00 0.00 0.00 0.00 0.00 0.00 0.00 0.00 0.00 0.00 0.00 0.00 0.00 0.00 0.00 0.01 0.07 0.03 0.03 0.02 0.01 0.00 0.05 0.06 0.01 0.00 0.00 0.00 0.01 0.01 0.00 0.00 0.00 0.00 0.00 0.00 0.00 0.00 0.00 0.00 0.00
MSLP
1006.97 1006.53 1007.14 1006.24 1006.68 1004.11 1002.67 1001.27 1001.00 1001.18 1001.53 1002.26 1003.10 1006.65 1004.67 1005.31 1006.44 1008.12 1009.01 1009.59 1010.73 1012.09 1013.24 1013.76 1014.10 1014.40 1014.70 1014.94 1015.14 1015.40 1015.65 1015.81 1016.13 1016.24 1016.53 1016.65 1016.83 1017.00 1017.04 1017.03 1017.02 1017.04 1016.79 1016.68 1016.68 1016.87 1017.10 1017.27 1017.49
1006.19 1005.86 1008.12 1008.58 1007.74 1003.68 1002.31 1000.82 1001.02 1001.38 1001.98 1002.97 1003.34 1004.21 1004.95 1005.58 1006.52 1007.57 1008.48 1009.73 1010.57 1011.98 1013.03 1013.83 1014.26 1014.54 1014.78 1015.02 1015.21 1015.47 1015.71 1015.98 1016.27 1016.48 1016.67 1016.93 1017.09 1017.19 1017.19 1017.05 1017.01 1016.97 1016.89 1016.89 1016.97 1017.30 1017.60 1017.66 1017.77
1006.60 1005.79 1006.82 1007.74 1005.51 1002.47 1001.27 1000.81 1001.36 1001.98 1002.53 1002.52 1003.38 1003.98 1004.87 1006.43 1007.07 1007.69 1008.94 1009.74 1010.86 1012.09 1012.95 1013.93 1014.32 1014.63 1014.89 1015.16 1015.31 1015.58 1015.88 1016.18 1016.35 1016.59 1016.82 1017.06 1017.20 1017.25 1017.17 1017.09 1017.13 1017.18 1017.21 1017.19 1017.27 1017.52 1017.71 1017.74 1017.72
1004.53 1004.17 1004.91 1005.07 1002.98 1001.31 1000.58 1000.68 1001.43 1002.01 1002.52 1002.66 1003.15 1004.82 1005.97 1006.56 1007.24 1008.50 1009.44 1009.78 1010.65 1012.07 1012.80 1013.92 1014.36 1014.75 1015.02 1015.25 1015.46 1015.76 1016.07 1016.35 1016.54 1016.70 1016.90 1017.14 1017.25 1017.17 1017.15 1017.21 1017.31 1017.42 1017.50 1017.47 1017.40 1017.50 1017.69 1017.70 1017.89
1003.63 1002.52 1003.97 1002.93 1001.64 1000.94 1000.60 1000.44 1000.71 1001.23 1002.05 1002.78 1003.57 1005.44 1006.44 1007.00 1007.93 1008.83 1009.16 1009.67 1010.92 1012.11 1012.95 1013.82 1014.48 1014.84 1015.12 1015.34 1015.61 1015.91 1016.15 1016.40 1016.58 1016.80 1016.98 1017.11 1017.26 1017.19 1017.22 1017.38 1017.50 1017.61 1017.63 1017.55 1017.48 1017.58 1017.76 1017.93 1018.12
1004.65 1004.43 1003.15 1001.94 1001.40 1000.82 1000.50 1000.35 1000.43 1001.11 1002.14 1003.23 1004.14 1005.66 1006.80 1007.57 1008.40 1008.86 1009.12 1009.28 1010.39 1011.65 1012.78 1013.88 1014.71 1015.01 1015.30 1015.51 1015.81 1016.04 1016.27 1016.47 1016.67 1016.80 1017.04 1017.21 1017.21 1017.18 1017.28 1017.48 1017.68 1017.75 1017.65 1017.50 1017.42 1017.43 1017.44 1017.67 1017.95
1007.57 1007.31 1004.34 1001.38 1001.53 1000.95 1000.84 1000.99 1000.47 1001.32 1002.10 1002.91 1004.32 1005.35 1007.06 1007.71 1008.37 1008.75 1009.18 1009.15 1010.12 1011.05 1012.50 1013.79 1014.57 1015.06 1015.43 1015.69 1015.92 1016.15 1016.32 1016.53 1016.70 1016.97 1017.15 1017.27 1017.24 1017.24 1017.39 1017.67 1017.87 1017.87 1017.67 1017.43 1017.23 1017.20 1017.47 1017.89 1017.96
1008.21 1004.37 1004.66 1002.44 1002.34 1001.34 1000.97 1000.81 1000.85 1001.20 1002.15 1002.99 1003.21 1005.07 1006.64 1007.47 1008.15 1008.78 1009.04 1009.09 1009.50 1010.68 1011.86 1012.99 1014.23 1014.83 1015.20 1015.64 1015.99 1016.23 1016.41 1016.58 1016.85 1017.05 1017.24 1017.25 1017.20 1017.22 1017.35 1017.73 1017.85 1017.75 1017.50 1017.14 1017.10 1017.26 1017.34 1017.54 1017.97
1007.18 1006.73 1004.88 1002.96 1002.48 1001.30 1000.92 1000.87 1001.39 1001.97 1002.66 1003.02 1003.54 1004.33 1006.03 1007.39 1008.06 1008.76 1008.96 1009.18 1009.75 1010.56 1011.32 1012.35 1013.51 1014.24 1014.70 1015.20 1016.04 1016.38 1016.54 1016.73 1016.92 1017.07 1017.18 1017.15 1016.83 1016.96 1017.15 1017.33 1017.63 1017.50 1017.18 1016.79 1016.82 1016.98 1017.01 1017.26 1017.42
1007.76 1006.16 1002.91 1001.68 1002.00 1001.13 1000.46 1000.77 1001.52 1002.18 1002.52 1003.19 1003.86 1004.91 1006.18 1007.29 1007.90 1008.38 1008.80 1009.22 1009.73 1010.01 1010.66 1011.74 1012.54 1013.50 1014.10 1014.34 1015.77 1016.03 1016.33 1016.50 1016.68 1016.73 1016.84 1016.69 1016.15 1016.10 1016.39 1016.88 1017.17 1017.00 1016.63 1016.44 1016.51 1016.73 1016.82 1017.12 1017.37
1007.22 1005.02 1001.66 1000.98 1000.48 1000.18 1000.26 1000.51 1001.66 1002.25 1003.29 1002.82 1003.97 1005.16 1006.36 1007.11 1007.79 1008.17 1008.55 1008.89 1009.59 1009.88 1010.29 1010.86 1012.06 1012.85 1013.09 1013.94 1014.83 1015.06 1015.46 1015.76 1016.05 1016.17 1016.34 1016.24 1015.96 1015.58 1015.81 1016.43 1016.71 1016.66 1016.25 1015.93 1015.81 1016.35 1016.59 1016.45 1017.19
1004.80 1002.94 1001.67 1001.14 1000.31 1000.20 1000.54 1000.60 1001.49 1001.83 1002.02 1002.52 1003.95 1005.27 1006.09 1006.82 1007.40 1007.81 1008.22 1008.62 1009.34 1009.98 1010.33 1010.52 1011.49 1012.20 1012.58 1013.38 1013.87 1014.04 1014.41 1015.04 1015.44 1015.89 1016.07 1015.90 1015.40 1015.47 1015.43 1015.85 1015.85 1015.96 1015.62 1015.07 1015.18 1015.41 1015.68 1015.85 1017.33
1003.58 1001.62 1001.34 1000.81 1000.29 1000.29 1000.86 1001.06 1001.19 1001.98 1002.26 1003.15 1004.22 1005.26 1005.89 1006.41 1006.93 1007.29 1007.76 1008.32 1009.00 1009.83 1010.31 1010.73 1011.24 1011.92 1012.41 1013.05 1013.23 1013.55 1013.87 1014.42 1014.66 1015.48 1016.00 1015.76 1015.51 1015.43 1015.42 1015.73 1015.77 1015.71 1015.25 1014.81 1014.72 1014.97 1015.61 1015.80 1015.95
1002.35 1001.44 1001.70 1001.44 1000.81 1000.80 1000.95 1001.59 1002.15 1002.30 1002.64 1003.53 1004.42 1005.14 1005.61 1005.84 1006.28 1006.79 1007.34 1007.90 1008.64 1009.56 1010.22 1010.77 1011.50 1012.15 1012.60 1012.92 1013.29 1013.59 1013.79 1013.94 1014.31 1014.87 1015.51 1015.65 1015.41 1015.27 1015.26 1015.69 1015.99 1015.88 1015.41 1015.11 1015.06 1015.29 1015.59 1015.56 1015.98
1003.03 1004.02 1002.42 1001.64 1001.36 1001.19 1001.71 1003.04 1004.32 1004.15 1003.10 1003.95 1004.39 1004.81 1005.19 1005.50 1005.87 1006.28 1007.09 1007.66 1008.52 1009.22 1010.00 1010.62 1011.61 1012.53 1013.03 1013.24 1013.54 1013.68 1013.69 1013.96 1014.35 1014.50 1015.16 1015.53 1015.43 1015.28 1015.34 1015.44 1015.65 1015.48 1015.38 1015.56 1015.38 1015.23 1014.95 1015.39 1015.63
1006.93 1007.03 1005.56 1003.18 1003.22 1003.26 1001.94 1004.80 1005.96 1004.92 1004.08 1003.78 1004.15 1004.52 1004.82 1005.19 1005.43 1005.92 1006.84 1007.63 1008.37 1008.91 1009.77 1010.56 1011.34 1012.39 1013.18 1013.51 1013.77 1013.76 1013.90 1013.82 1014.12 1014.23 1014.81 1015.11 1015.20 1015.22 1015.41 1015.42 1015.26 1015.07 1015.27 1015.51 1015.57 1015.77 1015.59 1015.84 1015.82
1007.26 1008.42 1007.15 1005.78 1004.21 1004.50 1002.74 1003.92 1004.61 1006.40 1005.59 1003.40 1003.53 1003.87 1004.38 1004.73 1005.12 1005.64 1006.47 1007.34 1008.08 1008.79 1009.74 1010.53 1011.25 1012.02 1012.93 1013.48 1013.88 1014.05 1013.95 1013.72 1013.71 1013.92 1014.06 1014.59 1014.89 1014.97 1015.18 1014.92 1015.03 1014.94 1015.01 1015.23 1015.53 1016.19 1016.61 1016.74 1016.88
1006.01 1006.74 1006.11 1005.48 1004.15 1003.18 1002.93 1002.66 1004.15 1004.56 1005.26 1003.41 1002.54 1003.17 1003.46 1003.98 1004.54 1005.16 1005.99 1006.91 1007.68 1008.63 1009.58 1010.49 1011.16 1011.76 1012.60 1013.44 1013.84 1014.03 1013.81 1013.53 1013.12 1013.30 1013.48 1014.07 1014.46 1014.77 1015.08 1015.01 1014.62 1014.76 1015.16 1015.60 1016.03 1016.17 1016.46 1017.05 1017.80
1004.26 1004.38 1003.83 1002.72 1002.64 1002.75 1002.05 1001.69 1002.18 1003.31 1003.38 1003.50 1001.32 1002.24 1002.58 1002.98 1003.48 1004.33 1005.38 1006.31 1007.20 1008.28 1009.37 1010.33 1011.03 1011.54 1012.23 1012.93 1013.64 1013.65 1013.41 1013.44 1013.15 1012.86 1012.94 1013.58 1013.73 1014.31 1014.63 1014.79 1014.46 1014.44 1016.08 1016.96 1016.60 1016.54 1016.62 1017.17 1018.00
1001.81 1002.34 1001.74 1000.70 1000.52 1001.34 1001.31 1002.97 1003.10 1002.73 1001.66 1000.28 1000.50 1001.29 1001.60 1001.88 1002.32 1003.12 1004.40 1005.42 1006.48 1007.59 1008.80 1009.97 1010.69 1011.32 1011.91 1012.41 1012.99 1013.06 1013.01 1012.88 1012.76 1012.45 1012.58 1012.84 1013.38 1013.84 1014.29 1014.23 1014.37 1015.26 1015.81 1015.56 1017.30 1017.13 1016.99 1017.50 1018.23
1000.69 1000.47 1000.01 999.58 999.39 1000.17 1000.92 1003.75 1003.36 1002.97 1001.75 1000.01 999.86 1000.41 1000.92 1001.36 1001.06 1001.26 1002.33 1004.28 1005.29 1006.40 1007.62 1008.80 1009.84 1010.58 1011.22 1011.82 1012.36 1012.53 1012.49 1012.41 1012.49 1012.27 1012.47 1012.59 1012.81 1013.29 1013.74 1013.81 1014.98 1015.39 1016.99 1016.79 1017.00 1016.95 1017.19 1017.61 1018.30
999.81 999.55 999.13 998.77 999.12 1000.30 1000.81 1003.81 1004.48 1003.42 1002.90 1000.43 1000.07 999.99 1000.05 1000.55 1000.98 1002.27 1001.47 1002.48 1003.67 1004.84 1006.82 1008.64 1009.37 1009.71 1010.57 1011.35 1011.74 1011.98 1012.10 1012.17 1012.18 1012.28 1012.57 1012.76 1013.37 1012.87 1013.29 1013.41 1014.26 1015.68 1015.69 1015.80 1016.37 1016.97 1017.44 1017.90 1018.27
998.85 998.77 998.68 998.08 997.74 998.59 998.93 1000.61 1002.04 1001.84 1000.96 1000.03 999.92 999.95 999.99 1000.03 1000.67 1001.17 1002.10 1002.22 1002.76 1003.71 1006.13 1007.63 1009.29 1009.44 1010.12 1010.79 1011.07 1011.51 1011.73 1012.01 1012.17 1012.71 1013.04 1013.45 1013.50 1013.27 1013.49 1013.76 1014.08 1014.66 1015.46 1016.23 1016.68 1017.20 1017.61 1017.80 1017.94
998.81 998.30 997.69 997.17 997.33 998.20 998.14 998.71 999.96 1000.02 1000.15 1000.27 1000.42 1000.73 1000.93 1000.87 1000.71 1000.60 1001.31 1001.58 1003.16 1004.33 1005.09 1006.70 1008.16 1008.62 1009.07 1010.13 1010.30 1010.92 1011.27 1011.84 1012.46 1013.06 1013.46 1013.85 1013.90 1013.90 1014.06 1014.39 1014.74 1015.22 1015.87 1016.25 1016.73 1017.04 1017.39 1017.60 1017.70
998.39 997.32 997.08 996.59 997.06 998.23 997.43 997.18 998.20 999.02 999.77 1000.18 1000.42 1000.81 1001.21 1001.39 1001.19 1000.78 1001.78 1001.70 1002.37 1003.51 1005.00 1007.76 1007.08 1008.08 1008.82 1009.19 1010.20 1010.62 1012.22 1012.97 1013.35 1013.61 1014.26 1014.84 1014.83 1014.80 1014.71 1014.87 1015.32 1015.93 1016.30 1016.61 1016.93 1017.34 1017.59 1017.77 1017.75
998.23 997.68 997.18 996.64 996.76 996.83 996.37 996.81 997.22 997.74 998.76 999.35 999.75 1000.09 1000.52 1001.00 1001.45 1001.30 1000.92 1001.67 1002.38 1002.55 1006.24 1005.77 1006.58 1007.75 1008.29 1009.04 1009.88 1011.00 1012.03 1013.27 1014.54 1015.31 1015.33 1015.30 1015.45 1015.98 1016.39 1015.29 1015.99 1016.10 1016.51 1016.99 1017.21 1017.36 1017.48 1017.43 1017.42
997.97 997.93 997.86 997.63 996.67 996.50 996.22 996.59 997.34 997.57 998.19 999.21 999.59 999.99 1000.34 1000.78 1001.58 1002.37 1002.01 1002.09 1004.15 1005.02 1005.75 1005.88 1006.94 1007.84 1008.38 1008.97 1010.12 1011.23 1011.54 1013.18 1014.28 1015.19 1015.48 1015.19 1015.24 1015.44 1016.02 1015.87 1015.96 1016.49 1016.94 1017.00 1017.09 1017.17 1017.13 1017.05 1017.05
998.14 998.32 997.94 997.54 997.22 997.17 996.77 996.94 997.21 997.93 998.49 999.12 999.57 999.98 1000.68 1001.35 1001.96 1002.77 1003.20 1003.32 1003.72 1004.14 1005.21 1005.76 1007.06 1008.01 1008.71 1009.46 1010.12 1011.06 1011.84 1012.39 1013.26 1013.87 1013.65 1013.73 1014.54 1015.18 1015.71 1016.07 1016.05 1016.18 1016.52 1017.15 1017.20 1017.13 1017.32 1016.96 1016.98
997.44 997.64 997.79 997.54 997.86 997.73 997.32 996.70 997.12 997.83 998.51 998.90 999.32 1000.04 1001.01 1001.79 1002.41 1003.16 1003.69 1004.18 1004.73 1005.04 1005.75 1006.42 1006.85 1007.66 1008.58 1009.15 1010.10 1011.10 1011.68 1011.85 1012.21 1013.43 1014.25 1014.67 1015.40 1015.11 1015.68 1015.88 1015.97 1016.27 1016.32 1016.78 1016.93 1017.00 1017.14 1017.05 1017.24
997.36 997.95 998.26 998.03 998.14 997.88 997.60 997.16 996.81 997.61 998.14 998.71 999.35 1000.45 1001.57 1002.25 1003.49 1004.29 1004.89 1005.32 1005.63 1006.06 1006.63 1007.04 1007.31 1007.58 1007.98 1008.81 1009.73 1010.67 1011.64 1011.74 1012.67 1013.50 1013.47 1014.22 1014.68 1015.38 1016.03 1016.34 1015.92 1016.32 1016.57 1016.91 1016.70 1016.97 1016.98 1016.96 1017.00
Thickness
5841 5845 5836 5807 5786 5801 5808 5819 5840 5826 5824 5839 5835 5765 5809 5814 5792 5752 5813 5815 5808 5798 5789 5786 5784 5782 5780 5779 5777 5775 5773 5771 5769 5769 5766 5764 5762 5761 5761 5762 5762 5761 5763 5764 5764 5762 5759 5758 5755
5846 5849 5817 5787 5774 5795 5800 5838 5824 5828 5834 5836 5835 5821 5809 5801 5814 5811 5811 5815 5811 5799 5791 5787 5785 5783 5781 5780 5778 5776 5774 5772 5770 5769 5767 5765 5763 5762 5763 5764 5764 5765 5765 5765 5764 5761 5758 5757 5755
5844 5848 5810 5784 5802 5798 5806 5836 5831 5832 5836 5834 5823 5832 5818 5799 5816 5816 5820 5818 5810 5801 5795 5788 5786 5783 5781 5780 5778 5777 5775 5773 5773 5771 5769 5767 5765 5765 5765 5766 5766 5765 5764 5765 5765 5763 5760 5760 5758
5854 5837 5815 5799 5823 5840 5836 5841 5839 5829 5833 5839 5833 5804 5817 5827 5819 5819 5819 5820 5814 5803 5797 5790 5786 5783 5781 5780 5778 5777 5776 5774 5773 5773 5771 5769 5768 5768 5768 5768 5767 5766 5765 5766 5767 5766 5764 5763 5760
5859 5853 5806 5822 5837 5846 5851 5853 5850 5834 5830 5829 5830 5801 5802 5822 5826 5822 5822 5822 5812 5805 5798 5791 5787 5784 5782 5781 5779 5778 5777 5776 5776 5774 5773 5772 5771 5771 5771 5769 5767 5766 5766 5767 5768 5767 5764 5762 5759
5824 5828 5810 5827 5836 5848 5853 5860 5854 5842 5835 5828 5819 5806 5805 5825 5820 5822 5825 5825 5820 5810 5801 5793 5786 5784 5782 5782 5780 5779 5778 5778 5776 5776 5775 5774 5773 5773 5772 5770 5768 5767 5769 5769 5770 5770 5771 5769 5764
5800 5793 5819 5841 5835 5838 5845 5860 5850 5841 5834 5828 5831 5804 5809 5817 5824 5826 5825 5829 5823 5815 5804 5794 5788 5785 5783 5782 5781 5780 5780 5779 5779 5777 5776 5775 5775 5775 5774 5771 5769 5769 5770 5771 5773 5775 5774 5769 5766
5804 5779 5829 5830 5813 5828 5854 5858 5863 5851 5836 5854 5853 5805 5799 5820 5829 5828 5827 5829 5828 5820 5811 5802 5793 5789 5787 5784 5782 5782 5782 5781 5780 5778 5777 5777 5777 5777 5777 5774 5772 5772 5773 5776 5776 5776 5775 5771 5763
5828 5803 5790 5818 5814 5838 5862 5851 5863 5865 5845 5849 5849 5841 5834 5834 5834 5825 5823 5824 5822 5820 5818 5810 5801 5797 5794 5790 5785 5784 5783 5782 5781 5780 5779 5779 5781 5781 5781 5779 5776 5776 5777 5780 5779 5777 5777 5774 5775
5804 5801 5833 5860 5846 5843 5863 5859 5854 5846 5842 5839 5842 5847 5843 5836 5830 5824 5820 5817 5818 5821 5823 5818 5811 5804 5799 5798 5788 5786 5785 5785 5784 5784 5783 5784 5789 5790 5788 5783 5780 5781 5783 5784 5783 5781 5780 5777 5770
5810 5813 5869 5871 5874 5876 5866 5863 5860 5841 5817 5846 5835 5836 5836 5833 5829 5826 5826 5826 5822 5825 5826 5826 5817 5810 5808 5803 5797 5795 5793 5791 5790 5788 5787 5787 5790 5793 5791 5787 5784 5784 5787 5788 5788 5786 5782 5783 5747
5832 5858 5871 5872 5880 5874 5861 5872 5854 5854 5854 5865 5855 5846 5840 5833 5830 5830 5828 5829 5827 5825 5826 5829 5824 5818 5815 5809 5806 5805 5802 5798 5794 5790 5789 5790 5795 5794 5793 5791 5790 5789 5792 5796 5794 5793 5787 5785 5767
5846 5869 5876 5880 5881 5878 5875 5865 5863 5857 5870 5868 5857 5847 5840 5838 5836 5839 5839 5837 5833 5825 5827 5827 5826 5820 5818 5813 5812 5810 5809 5804 5801 5795 5790 5791 5794 5795 5794 5790 5791 5792 5796 5800 5801 5798 5789 5787 5782
5867 5881 5873 5875 5876 5877 5867 5863 5859 5862 5872 5860 5853 5845 5844 5844 5843 5842 5840 5837 5835 5831 5828 5828 5824 5820 5816 5816 5813 5810 5809 5807 5804 5800 5795 5793 5794 5795 5794 5791 5789 5791 5795 5797 5799 5798 5793 5789 5785
5859 5829 5861 5871 5873 5868 5867 5838 5827 5849 5867 5853 5851 5849 5848 5848 5849 5845 5843 5840 5837 5835 5832 5829 5822 5816 5812 5812 5809 5808 5807 5805 5803 5803 5797 5793 5793 5794 5794 5794 5794 5794 5795 5793 5795 5798 5799 5793 5790
5804 5805 5791 5843 5849 5844 5865 5787 5823 5848 5857 5854 5853 5850 5849 5849 5850 5852 5848 5843 5841 5839 5832 5830 5826 5817 5811 5808 5806 5806 5804 5805 5803 5802 5798 5796 5795 5794 5793 5795 5797 5798 5795 5792 5793 5793 5794 5789 5791
5795 5770 5773 5805 5838 5832 5847 5810 5834 5816 5832 5858 5859 5855 5851 5851 5853 5854 5851 5847 5843 5839 5832 5828 5825 5818 5811 5806 5803 5801 5802 5804 5803 5801 5801 5798 5796 5796 5795 5797 5797 5794 5794 5795 5795 5792 5784 5782 5781
5786 5787 5798 5800 5828 5842 5842 5851 5835 5837 5818 5839 5865 5860 5858 5854 5852 5856 5853 5850 5846 5840 5833 5827 5822 5819 5812 5805 5801 5799 5801 5803 5806 5804 5803 5798 5797 5794 5793 5794 5796 5793 5795 5791 5786 5786 5785 5778 5771
5833 5826 5819 5844 5850 5844 5853 5867 5871 5852 5835 5814 5871 5865 5864 5862 5868 5864 5857 5853 5848 5841 5831 5824 5819 5817 5811 5804 5797 5796 5797 5799 5802 5805 5805 5803 5801 5796 5793 5791 5792 5794 5781 5773 5783 5782 5779 5773 5765
5852 5834 5832 5862 5876 5860 5863 5837 5854 5857 5868 5874 5878 5870 5870 5873 5872 5869 5862 5856 5849 5842 5833 5823 5818 5814 5811 5806 5801 5800 5800 5803 5804 5806 5806 5804 5800 5796 5793 5793 5790 5782 5779 5780 5767 5774 5772 5766 5760
5853 5848 5853 5858 5879 5874 5862 5808 5830 5848 5869 5893 5892 5879 5878 5873 5874 5873 5871 5860 5856 5848 5839 5829 5821 5815 5812 5808 5803 5801 5802 5802 5799 5801 5802 5803 5800 5795 5792 5793 5776 5751 5757 5765 5766 5768 5763 5757 5754
5841 5871 5870 5868 5853 5811 5856 5770 5797 5816 5829 5873 5877 5884 5883 5873 5875 5834 5867 5870 5863 5855 5847 5829 5822 5818 5812 5806 5801 5797 5792 5788 5794 5793 5794 5799 5790 5793 5791 5790 5781 5758 5767 5768 5765 5758 5753 5748 5743
5861 5883 5872 5873 5870 5862 5862 5830 5826 5840 5848 5866 5872 5876 5881 5886 5874 5866 5867 5869 5867 5861 5834 5820 5818 5818 5811 5805 5802 5796 5792 5790 5788 5783 5782 5781 5781 5782 5779 5779 5776 5773 5761 5755 5749 5745 5744 5744 5742
5884 5872 5878 5881 5870 5822 5860 5852 5831 5843 5851 5858 5865 5866 5867 5872 5878 5882 5873 5871 5842 5843 5842 5828 5824 5818 5814 5804 5801 5796 5788 5783 5774 5775 5770 5766 5767 5770 5767 5765 5761 5756 5751 5750 5744 5743 5742 5741 5740
5876 5871 5834 5836 5833 5812 5876 5866 5854 5865 5865 5862 5860 5861 5863 5866 5870 5876 5855 5863 5857 5847 5828 5806 5820 5817 5811 5808 5790 5775 5769 5761 5755 5758 5753 5746 5747 5750 5751 5750 5747 5743 5739 5736 5733 5731 5731 5729 5730
5864 5867 5844 5813 5826 5843 5888 5847 5859 5885 5880 5876 5874 5869 5865 5866 5863 5866 5871 5856 5858 5848 5822 5823 5816 5810 5813 5804 5791 5767 5747 5751 5737 5733 5733 5735 5732 5728 5722 5730 5731 5727 5727 5723 5720 5721 5721 5722 5722
5864 5848 5878 5850 5875 5858 5875 5878 5882 5889 5879 5867 5866 5865 5862 5860 5858 5851 5859 5859 5833 5822 5820 5820 5813 5807 5803 5798 5785 5770 5765 5750 5741 5720 5726 5728 5727 5724 5720 5721 5724 5720 5717 5712 5713 5711 5712 5713 5713
5871 5881 5843 5856 5821 5813 5849 5852 5846 5856 5856 5861 5860 5858 5855 5855 5847 5847 5843 5843 5841 5832 5819 5817 5808 5798 5792 5786 5779 5767 5760 5752 5743 5735 5735 5731 5728 5721 5715 5714 5716 5717 5714 5703 5704 5704 5703 5706 5706
5867 5859 5864 5870 5855 5821 5818 5847 5878 5863 5863 5857 5858 5855 5850 5846 5841 5837 5833 5831 5827 5821 5811 5801 5799 5795 5786 5782 5773 5763 5756 5751 5749 5732 5723 5721 5718 5722 5708 5710 5711 5709 5710 5705 5704 5704 5701 5701 5699
5883 5861 5858 5831 5826 5846 5839 5838 5895 5877 5867 5859 5853 5845 5839 5840 5830 5819 5815 5810 5807 5802 5794 5790 5789 5787 5783 5777 5770 5760 5750 5748 5738 5727 5729 5724 5723 5714 5706 5703 5708 5705 5705 5700 5702 5697 5697 5698 5697